Flag for Netherlands Weather past 2 weeks in Eindhoven, Netherlands

Now
61 °F

Passing clouds.


Feels Like: 61 °F
Forecast: 51 / 61 °F
Wind: 8 mph from West

Location: Eindhoven Airport

Current Time: Apr 25, 2015 at 8:36:09 PM

Latest Report: Apr 25, 2015 at 7:55 PM


Visibility: N/A

Pressure: 29.71 "Hg

Humidity: 63%

Dew point: 48 °F

Location of EindhovenLocation

Historic Weather in Eindhoven — Graph

°F

Eindhoven temperature yesterday

Maximum temperature yesterday: 72 °F (at 2:55 PM)
Minimum temperature yesterday: 36 °F (at 6:04 AM)
Average temperature yesterday: 56 °F

Past Weeks' High & Low Weather Summary

 TemperatureHumidityPressure
High77 °F (Apr 15, 3:55 PM)100% (Apr 16, 4:55 AM)30.48 "Hg (Apr 16, 4:55 AM)
Low34 °F (Apr 18, 4:25 AM)28% (Apr 10, 7:25 PM)29.71 "Hg (Apr 25, 5:55 PM)
Average52 °F66%30.18 "Hg
* Reported Apr 10 7:25 PM — Apr 25 7:25 PM, Eindhoven, Weather by CustomWeather, © 2015

Note: Actual official high and low records may vary slightly from our data, if they occured in-between our weather recording intervals... More about our weather records

Advertising

Eindhoven weather history for previous 24 hours

 ConditionsComfort  
Time TempWeatherWind HumidityBarometerVisibility
7:25 PM
Sat, Apr 25
61 °FOvercast.14 mph63%29.71 "HgN/A
6:55 PM61 °FBroken clouds.13 mph68%29.71 "HgN/A
6:25 PM61 °FMostly cloudy.13 mph72%29.71 "HgN/A
5:55 PM61 °FBroken clouds.12 mph72%29.71 "HgN/A
5:25 PM61 °FBroken clouds.13 mph72%29.74 "HgN/A
5:01 PM59 °FBroken clouds.12 mph77%29.74 "HgN/A
4:25 PM59 °FMostly cloudy.13 mph77%29.74 "HgN/A
3:55 PM57 °FMostly cloudy.15 mph77%29.74 "HgN/A
3:25 PM59 °FBroken clouds.14 mph72%29.74 "HgN/A
2:55 PM57 °FMostly cloudy.13 mph82%29.74 "HgN/A
2:25 PM59 °FBroken clouds.13 mph72%29.74 "HgN/A
1:59 PM61 °FPartly sunny.13 mph68%29.74 "HgN/A
1:25 PM59 °FBroken clouds.13 mph77%29.74 "HgN/A
12:59 PM59 °FBroken clouds.13 mph77%29.74 "HgN/A
12:55 PM59 °FLight rain. Broken clouds.13 mph82%29.74 "HgN/A
12:25 PM59 °FPartly sunny.13 mph77%29.74 "HgN/A
12:01 PM57 °FBroken clouds.12 mph77%29.77 "HgN/A
11:25 AM55 °FOvercast.12 mph77%29.77 "HgN/A
10:55 AM55 °FPartly sunny.9 mph82%29.77 "HgN/A
10:25 AM55 °FPassing clouds.10 mph77%29.77 "HgN/A
9:55 AM54 °FScattered clouds.8 mph82%29.77 "HgN/A
9:25 AM52 °FPartly sunny.7 mph82%29.77 "HgN/A
8:55 AM52 °FPartly sunny.8 mph88%29.77 "HgN/A
8:25 AM50 °FDrizzle. Mostly cloudy.7 mph94%29.77 "HgN/A
7:59 AM50 °FDrizzle. Mostly cloudy.8 mph94%29.77 "Hg4 mi
7:55 AM50 °FDrizzle. More clouds than sun.9 mph94%29.77 "Hg5 mi
7:25 AM52 °FDrizzle. Broken clouds.9 mph94%29.77 "Hg3 mi
6:55 AM52 °FSprinkles. Overcast.8 mph94%29.77 "Hg3 mi
6:25 AM50 °FDrizzle. Mostly cloudy.7 mph94%29.77 "Hg4 mi
5:59 AM52 °FDrizzle. Mostly cloudy.3 mph88%29.77 "Hg5 mi
5:25 AM52 °FLight rain. Passing clouds.10 mph88%29.77 "Hg4 mi
4:55 AM54 °FLight rain. Partly cloudy.9 mph77%29.77 "HgN/A
4:25 AM54 °FPassing clouds.6 mph77%29.77 "HgN/A
3:59 AM54 °FFog.6 mph77%29.77 "Hg5 mi
3:55 AM54 °FFog.6 mph77%29.77 "Hg4 mi
3:25 AM54 °FFog.5 mph82%29.77 "Hg3 mi
2:55 AM52 °FFog.5 mph82%29.80 "Hg4 mi
2:25 AM52 °FFog.5 mph88%29.80 "Hg3 mi
1:55 AM52 °FFog.5 mph88%29.80 "Hg3 mi
1:25 AM52 °FOvercast.3 mph88%29.80 "Hg3 mi
12:55 AM54 °FPassing clouds.5 mph77%29.80 "Hg3 mi
12:25 AM55 °FPassing clouds.2 mph72%29.80 "Hg3 mi
11:55 PM
Fri, Apr 24
55 °FOvercast.7 mph72%29.80 "Hg4 mi
11:25 PM57 °FOvercast.3 mph63%29.80 "Hg6 mi
10:55 PM59 °FOvercast.6 mph59%29.80 "HgN/A
10:25 PM59 °FOvercast.6 mph55%29.80 "HgN/A
9:55 PM63 °FOvercast.8 mph52%29.80 "HgN/A
9:25 PM63 °FOvercast.9 mph56%29.80 "HgN/A
8:55 PM64 °FMostly cloudy.2 mph52%29.77 "HgN/A
8:25 PM66 °FOvercast.3 mph46%29.77 "HgN/A
Weather by CustomWeather, © 2015

See weather overviewHow to use our weather pages